| time (UTC) | temp C | wind direction | speed KPH | gust KPH | rain 1hr cm | rain 24hr cm | rain mn cm | humidity % | barometer mb |
| 20260906100454 | 22 | 310 | 0.0 | 1.6 | 0.13 | 0.53 | 0.53 | 98 | 983.7 |
| 20260906095448 | 22 | 81 | 3.2 | 3.2 | 0.05 | 0.51 | 0.51 | 99 | 984.1 |
| 20260906094442 | 22 | 30 | 1.6 | 3.2 | 0.05 | 0.51 | 0.51 | 99 | 984.1 |
| 20260906093436 | 22 | 99 | 4.8 | 4.8 | 0.00 | 0.48 | 0.48 | 99 | 983.7 |
| 20260906092430 | 22 | 56 | 1.6 | 1.6 | 0.05 | 0.48 | 0.48 | 99 | 983.7 |
| 20260906091424 | 22 | 95 | 3.2 | 3.2 | 0.05 | 0.48 | 0.48 | 99 | 983.1 |
| 20260906090418 | 22 | 290 | 0.0 | 0.0 | 0.00 | 0.48 | 0.48 | 99 | 983.1 |
| 20260906085412 | 22 | 75 | 0.0 | 3.2 | 0.05 | 0.48 | 0.48 | 99 | 983.1 |
| 20260906084406 | 22 | 269 | 0.0 | 0.0 | 0.05 | 0.46 | 0.46 | 99 | 983.1 |
| 20260906083400 | 22 | 105 | 1.6 | 3.2 | 0.13 | 0.46 | 0.46 | 99 | 983.1 |
| 20260906082354 | 22 | 75 | 0.0 | 0.0 | 0.00 | 0.43 | 0.43 | 99 | 983.1 |
| 20260906081348 | 23 | 198 | 0.0 | 1.6 | 0.05 | 0.43 | 0.43 | 99 | 983.1 |
| 20260906080342 | 23 | 201 | 3.2 | 3.2 | 0.18 | 0.41 | 0.41 | 99 | 983.1 |
| 20260906075336 | 23 | 224 | 0.0 | 1.6 | 0.36 | 0.38 | 0.38 | 99 | 983.4 |
| 20260906074330 | 23 | 139 | 3.2 | 6.4 | 0.71 | 0.33 | 0.33 | 99 | 983.4 |
| 20260906073324 | 24 | 154 | 3.2 | 8.0 | 0.66 | 0.20 | 0.20 | 99 | 983.7 |
| 20260906072318 | 25 | 95 | 3.2 | 3.2 | 0.05 | 0.10 | 0.10 | 99 | 983.7 |
| 20260906071312 | 25 | 295 | 0.0 | 1.6 | 0.05 | 0.08 | 0.08 | 99 | 983.4 |
| 20260906070306 | 25 | 247 | 1.6 | 3.2 | 0.05 | 0.08 | 0.08 | 99 | 983.4 |
| 20260906065300 | 24 | 315 | 1.6 | 1.6 | 0.00 | 0.05 | 0.05 | 99 | 983.4 |
| 20260906064254 | 24 | 180 | 0.0 | 0.0 | 0.05 | 0.05 | 0.05 | 99 | 982.7 |
| 20260906063248 | 24 | 222 | 1.6 | 3.2 | 0.00 | 0.05 | 0.05 | 99 | 982.7 |
| 20260906062242 | 23 | 224 | 0.0 | 0.0 | 0.05 | 0.05 | 0.05 | 99 | 983.1 |
| 20260906061236 | 23 | 230 | 0.0 | 0.0 | 0.00 | 0.05 | 0.05 | 99 | 983.1 |
| 20260906060230 | 23 | 180 | 0.0 | 0.0 | 0.05 | 0.05 | 0.05 | 99 | 983.1 |
| 20260906055224 | 23 | 218 | 0.0 | 0.0 | 0.05 | 0.03 | 0.03 | 99 | 983.4 |
| 20260906054218 | 23 | 255 | 1.6 | 1.6 | 0.00 | 0.03 | 0.03 | 99 | 983.4 |
| 20260906053212 | 23 | 163 | 0.0 | 1.6 | 0.00 | 0.03 | 0.03 | 99 | 983.4 |
| 20260906052206 | 23 | 205 | 0.0 | 0.0 | 0.05 | 0.03 | 0.03 | 99 | 983.4 |
| 20260906051158 | 23 | 203 | 1.6 | 1.6 | 0.05 | 0.00 | 0.00 | 99 | 983.7 |
| 20260906050152 | 23 | 269 | 0.0 | 0.0 | 0.00 | 0.00 | 0.00 | 99 | 984.1 |
| 20260906045146 | 23 | 255 | 0.0 | 0.0 | 0.05 | 0.84 | 0.84 | 98 | 983.7 |
| 20260906044140 | 23 | 288 | 0.0 | 0.0 | 0.00 | 0.84 | 0.84 | 97 | 983.7 |
| 20260906043134 | 23 | 284 | 0.0 | 0.0 | 0.05 | 0.84 | 0.84 | 97 | 983.7 |
| 20260906042128 | 23 | 179 | 0.0 | 0.0 | 0.00 | 0.81 | 0.81 | 96 | 983.7 |
| 20260906041122 | 23 | 115 | 3.2 | 3.2 | 0.13 | 0.81 | 0.81 | 93 | 983.7 |
| 20260906040116 | 25 | 269 | 3.2 | 3.2 | 3.00 | 0.79 | 0.79 | 87 | 983.7 |
| 20260906035110 | 27 | 275 | 6.4 | 8.0 | 1.19 | 0.28 | 0.28 | 88 | 984.8 |
| 20260906034104 | 26 | 291 | 0.0 | 3.2 | 0.00 | 0.10 | 0.10 | 86 | 984.4 |
| 20260906033058 | 26 | 317 | 0.0 | 3.2 | 0.00 | 0.10 | 0.10 | 87 | 984.1 |
| 20260906032052 | 26 | 255 | 0.0 | 0.0 | 0.00 | 0.10 | 0.10 | 86 | 983.7 |
| 20260906031046 | 26 | 288 | 1.6 | 3.2 | 0.00 | 0.10 | 0.10 | 86 | 983.7 |
| 20260906030040 | 26 | 222 | 0.0 | 1.6 | 0.00 | 0.10 | 0.10 | 86 | 983.4 |
| 20260906025034 | 27 | 251 | 0.0 | 1.6 | 0.00 | 0.10 | 0.10 | 85 | 983.4 |
| 20260906024028 | 27 | 269 | 0.0 | 0.0 | 0.00 | 0.10 | 0.10 | 84 | 983.4 |
| 20260906023022 | 27 | 141 | 0.0 | 1.6 | 0.00 | 0.10 | 0.10 | 83 | 983.4 |
| 20260906022016 | 27 | 283 | 1.6 | 1.6 | 0.00 | 0.10 | 0.10 | 82 | 983.1 |
| 20260906021010 | 27 | 224 | 0.0 | 0.0 | 0.00 | 0.10 | 0.10 | 80 | 983.4 |
| 20260906020004 | 27 | 252 | 3.2 | 3.2 | 0.00 | 0.10 | 0.10 | 80 | 983.4 |
| 20260906014958 | 28 | 253 | 0.0 | 1.6 | 0.00 | 0.10 | 0.10 | 79 | 983.1 |
| 20260906013952 | 28 | 178 | 0.0 | 0.0 | 0.00 | 0.10 | 0.10 | 77 | 983.1 |
| 20260906012946 | 28 | 193 | 0.0 | 0.0 | 0.00 | 0.10 | 0.10 | 77 | 982.4 |
| 20260906011940 | 28 | 267 | 1.6 | 3.2 | 0.00 | 0.10 | 0.10 | 75 | 982.4 |
| 20260906010934 | 28 | 282 | 0.0 | 0.0 | 0.00 | 0.10 | 0.10 | 77 | 982.1 |
| 20260906005928 | 28 | 236 | 0.0 | 3.2 | 0.00 | 0.10 | 0.10 | 75 | 982.1 |
| 20260906004922 | 29 | 224 | 0.0 | 0.0 | 0.00 | 0.10 | 0.10 | 74 | 981.7 |
| 20260906003916 | 30 | 224 | 0.0 | 1.6 | 0.00 | 0.10 | 0.10 | 72 | 981.7 |
| 20260906002908 | 30 | 280 | 1.6 | 3.2 | 0.00 | 0.10 | 0.10 | 69 | 982.1 |
| 20260906001902 | 30 | 251 | 1.6 | 3.2 | 0.00 | 0.10 | 0.10 | 67 | 982.1 |
| 20260906000856 | 30 | 195 | 0.0 | 0.0 | 0.00 | 0.10 | 0.10 | 66 | 982.1 |
| 20260905235849 | 30 | 224 | 0.0 | 0.0 | 0.00 | 0.10 | 0.10 | 63 | 982.1 |
| 20260905234843 | 31 | 218 | 0.0 | 0.0 | 0.00 | 0.10 | 0.10 | 61 | 982.1 |
| 20260905233837 | 31 | 230 | 0.0 | 1.6 | 0.00 | 0.10 | 0.10 | 59 | 982.1 |
| 20260905232831 | 31 | 263 | 3.2 | 3.2 | 0.00 | 0.10 | 0.10 | 58 | 982.1 |
| 20260905231825 | 31 | 266 | 1.6 | 3.2 | 0.00 | 0.10 | 0.10 | 56 | 982.1 |
| 20260905230819 | 31 | 260 | 0.0 | 1.6 | 0.00 | 0.10 | 0.10 | 56 | 982.1 |
| 20260905225813 | 31 | 269 | 0.0 | 0.0 | 0.00 | 0.10 | 0.10 | 54 | 982.1 |
| 20260905224807 | 32 | 180 | 0.0 | 0.0 | 0.00 | 0.10 | 0.10 | 53 | 982.1 |
| 20260905223801 | 32 | 265 | 0.0 | 1.6 | 0.00 | 0.10 | 0.10 | 49 | 981.7 |
| 20260905222755 | 33 | 249 | 4.8 | 4.8 | 0.00 | 0.10 | 0.10 | 48 | 981.7 |
| 20260905221749 | 34 | 260 | 1.6 | 3.2 | 0.00 | 0.10 | 0.10 | 47 | 981.7 |
| 20260905220743 | 35 | 272 | 3.2 | 3.2 | 0.00 | 0.10 | 0.10 | 46 | 982.1 |
| 20260905215737 | 35 | 277 | 3.2 | 4.8 | 0.00 | 0.10 | 0.10 | 43 | 981.7 |
| 20260905214731 | 36 | 247 | 1.6 | 3.2 | 0.00 | 0.10 | 0.10 | 43 | 981.7 |
| 20260905213725 | 36 | 269 | 1.6 | 3.2 | 0.00 | 0.10 | 0.10 | 45 | 981.7 |
| 20260905212718 | 35 | 279 | 1.6 | 3.2 | 0.00 | 0.10 | 0.10 | 46 | 981.7 |
| 20260905211711 | 35 | 275 | 3.2 | 3.2 | 0.00 | 0.10 | 0.10 | 44 | 982.1 |
| 20260905210706 | 36 | 296 | 3.2 | 3.2 | 0.00 | 0.10 | 0.10 | 43 | 981.7 |
| 20260905205659 | 36 | 287 | 3.2 | 4.8 | 0.00 | 0.10 | 0.10 | 40 | 982.1 |
| 20260905204653 | 37 | 222 | 1.6 | 3.2 | 0.00 | 0.10 | 0.10 | 40 | 982.1 |
| 20260905203647 | 37 | 289 | 4.8 | 6.4 | 0.00 | 0.10 | 0.10 | 39 | 982.1 |
| 20260905202641 | 36 | 287 | 4.8 | 4.8 | 0.00 | 0.10 | 0.10 | 40 | 982.1 |
| 20260905201635 | 37 | 285 | 6.4 | 6.4 | 0.00 | 0.10 | 0.10 | 37 | 982.1 |
| 20260905200628 | 37 | 258 | 3.2 | 3.2 | 0.00 | 0.10 | 0.10 | 39 | 982.1 |
| 20260905195622 | 37 | 243 | 0.0 | 38.6 | 0.00 | 0.10 | 0.10 | 40 | 982.4 |
| 20260905194616 | 36 | 127 | 3.2 | 29.0 | 0.00 | 0.10 | 0.10 | 42 | 982.4 |
| 20260905193610 | 36 | 220 | 1.6 | 37.0 | 0.00 | 0.10 | 0.10 | 43 | 982.7 |
| 20260905192604 | 36 | 234 | 0.0 | 32.2 | 0.00 | 0.10 | 0.10 | 43 | 982.7 |
| 20260905191557 | 36 | 291 | 3.2 | 3.2 | 0.00 | 0.10 | 0.10 | 42 | 983.1 |
| 20260905190551 | 36 | 179 | 0.0 | 35.4 | 0.00 | 0.10 | 0.10 | 42 | 983.1 |
| 20260905185545 | 36 | 252 | 4.8 | 33.8 | 0.00 | 0.10 | 0.10 | 45 | 983.4 |
| 20260905184539 | 35 | 248 | 3.2 | 35.4 | 0.00 | 0.10 | 0.10 | 46 | 983.4 |
| 20260905183533 | 35 | 257 | 3.2 | 3.2 | 0.00 | 0.10 | 0.10 | 46 | 983.7 |
| 20260905182527 | 35 | 233 | 9.7 | 9.7 | 0.00 | 0.10 | 0.10 | 45 | 983.7 |
| 20260905181521 | 35 | 222 | 3.2 | 4.8 | 0.00 | 0.10 | 0.10 | 46 | 984.1 |
| 20260905180515 | 35 | 264 | 4.8 | 4.8 | 0.00 | 0.10 | 0.10 | 46 | 984.1 |
| 20260905175509 | 35 | 260 | 3.2 | 3.2 | 0.00 | 0.10 | 0.10 | 47 | 984.4 |
| 20260905174503 | 34 | 249 | 3.2 | 4.8 | 0.00 | 0.10 | 0.10 | 52 | 984.4 |
| 20260905173457 | 33 | 262 | 3.2 | 3.2 | 0.00 | 0.10 | 0.10 | 52 | 984.4 |
| 20260905172451 | 34 | 233 | 3.2 | 3.2 | 0.00 | 0.10 | 0.10 | 49 | 984.8 |
| 20260905171445 | 33 | 297 | 3.2 | 4.8 | 0.00 | 0.10 | 0.10 | 52 | 984.8 |
| 20260905170439 | 33 | 239 | 1.6 | 3.2 | 0.00 | 0.10 | 0.10 | 54 | 984.8 |
| 20260905165434 | 34 | 267 | 0.0 | 0.0 | 0.00 | 0.10 | 0.10 | 51 | 985.1 |
| 20260905164427 | 35 | 264 | 3.2 | 4.8 | 0.00 | 0.10 | 0.10 | 50 | 985.1 |
| 20260905163421 | 34 | 283 | 3.2 | 4.8 | 0.00 | 0.10 | 0.10 | 50 | 985.1 |
| 20260905162415 | 34 | 274 | 3.2 | 4.8 | 0.00 | 0.10 | 0.10 | 52 | 985.1 |
| 20260905161409 | 34 | 317 | 0.0 | 3.2 | 0.00 | 0.10 | 0.10 | 53 | 985.4 |
| 20260905160403 | 33 | 330 | 4.8 | 4.8 | 0.00 | 0.10 | 0.10 | 54 | 985.4 |
| 20260905155357 | 33 | 244 | 4.8 | 8.0 | 0.00 | 0.10 | 0.10 | 53 | 985.4 |
| 20260905154351 | 33 | 285 | 4.8 | 8.0 | 0.00 | 0.10 | 0.10 | 54 | 985.1 |
| 20260905153345 | 33 | 337 | 3.2 | 3.2 | 0.00 | 0.10 | 0.10 | 55 | 985.4 |
| 20260905152339 | 32 | 283 | 0.0 | 1.6 | 0.00 | 0.10 | 0.10 | 57 | 985.4 |
| 20260905151333 | 32 | 286 | 1.6 | 3.2 | 0.00 | 0.10 | 0.10 | 60 | 985.4 |
| 20260905150327 | 31 | 180 | 0.0 | 0.0 | 0.00 | 0.10 | 0.10 | 61 | 985.4 |
| 20260905145321 | 30 | 239 | 1.6 | 3.2 | 0.00 | 0.10 | 0.10 | 65 | 985.4 |
| 20260905144315 | 30 | 313 | 4.8 | 4.8 | 0.00 | 0.10 | 0.10 | 66 | 985.4 |
| 20260905143309 | 29 | 180 | 0.0 | 1.6 | 0.00 | 0.10 | 0.10 | 69 | 985.4 |
| 20260905142305 | 28 | 239 | 0.0 | 1.6 | 0.00 | 0.10 | 0.10 | 70 | 985.4 |
| 20260905141257 | 28 | 123 | 0.0 | 0.0 | 0.00 | 0.10 | 0.10 | 71 | 985.4 |
| 20260905140251 | 28 | 294 | 1.6 | 3.2 | 0.00 | 0.10 | 0.10 | 74 | 985.4 |
| 20260905135245 | 28 | 290 | 3.2 | 3.2 | 0.00 | 0.10 | 0.10 | 77 | 985.4 |
| 20260905134239 | 26 | 178 | 0.0 | 3.2 | 0.00 | 0.10 | 0.10 | 82 | 985.4 |
| 20260905133233 | 26 | 297 | 0.0 | 0.0 | 0.00 | 0.10 | 0.10 | 85 | 985.8 |
| 20260905132227 | 25 | 255 | 0.0 | 0.0 | 0.05 | 0.10 | 0.10 | 89 | 985.8 |
| 20260905131221 | 24 | 269 | 0.0 | 0.0 | 0.00 | 0.08 | 0.08 | 92 | 986.1 |
| 20260905130215 | 23 | 234 | 0.0 | 0.0 | 0.05 | 0.08 | 0.08 | 95 | 985.8 |
| 20260905125209 | 23 | 180 | 0.0 | 0.0 | 0.00 | 0.08 | 0.08 | 98 | 985.8 |
| 20260905124203 | 23 | 249 | 0.0 | 0.0 | 0.00 | 0.05 | 0.05 | 98 | 985.4 |
| 20260905123157 | 22 | 224 | 0.0 | 0.0 | 0.00 | 0.05 | 0.05 | 97 | 985.8 |
| 20260905122151 | 22 | 147 | 0.0 | 0.0 | 0.05 | 0.05 | 0.05 | 97 | 985.8 |
| 20260905121145 | 22 | 89 | 0.0 | 0.0 | 0.05 | 0.05 | 0.05 | 98 | 985.4 |
| 20260905120139 | 22 | 178 | 0.0 | 0.0 | 0.00 | 0.05 | 0.05 | 98 | 985.4 |
| 20260905115133 | 22 | 177 | 0.0 | 0.0 | 0.05 | 0.05 | 0.05 | 97 | 985.4 |
| 20260905114127 | 22 | 177 | 0.0 | 0.0 | 0.00 | 0.03 | 0.03 | 97 | 985.4 |
| 20260905113121 | 22 | 89 | 0.0 | 0.0 | 0.05 | 0.03 | 0.03 | 97 | 985.4 |
| 20260905112115 | 22 | 269 | 0.0 | 0.0 | 0.00 | 0.03 | 0.03 | 96 | 985.4 |
| 20260905111109 | 22 | 1 | 0.0 | 0.0 | 0.05 | 0.03 | 0.03 | 96 | 985.4 |
| 20260905105057 | 22 | 180 | 0.0 | 0.0 | 0.00 | 0.00 | 0.00 | 96 | 985.1 |
| 20260905104051 | 22 | 323 | 0.0 | 0.0 | 0.00 | 0.00 | 0.00 | 95 | 985.1 |
| 20260905103045 | 22 | 122 | 0.0 | 0.0 | 0.00 | 0.00 | 0.00 | 95 | 985.1 |
| 20260905102039 | 22 | 315 | 0.0 | 0.0 | 0.00 | 0.00 | 0.00 | 95 | 984.8 |